Location: Ferchesar
(52.6477°N, 12.4298°E)
Time: 03:11:29
(UTC+01:00)

Tiros 1 - Pass Details

Date: 09 December 2021
Orbit: 629 x 664 km, 48.4° (Epoch: 21 January)

Event Time Altitude Azimuth Distance (km) Brightness Sun altitude
Rises 18:33:01 0° 248° (WSW) 2,918 11.9 -22.5°
Reaches altitude 10° 18:35:23 10° 243° (WSW) 2,014 10.7 -22.8°
Maximum altitude 18:39:49 47° 170° (S) 848 7.6 -23.5°
Enters shadow 18:40:04 46° 160° (SSE) 854 7.6 -23.5°
Drops below altitude 10° 18:44:19 10° 97° (E) 2,035 - -24.2°
Sets 18:46:43 0° 92° (E) 2,952 - -24.6°
